Vorticity
7 16 14 7 11 5 4 6 3 1 9 7 11 6 9 5 4 5 11 4 5 12 8 1 11 5 4
8 3 7 18 21 11 3 3 10 7 0 -1 4 10 10 5 4 5 13 12 5 6 5 15 4 -5 -10
12 8 6 6 9 20 15 7 6 9 13 12 4 -0 0 7 12 5 10 14 17 5 6 7 -10 3 11
18 8 5 6 7 9 15 12 4 7 3 1 6 7 1 -1 -18 -3 -0 16 -3 8 1 -7 -9 14 6
13 15 9 3 6 -0 1 7 7 7 8 9 10 9 9 16 18 38 45 15 2 7 12 1 23 -3 30
28 13 11 9 9 18 17 16 11 7 7 2 5 6 9 20 8 17 -27 -9 -32 27 26 26 4 33 14
16 17 17 19 13 16 16 14 16 14 12 6 9 10 10 10 6 17 24 20 35 11 -6 19 27 4 9
19 19 18 21 13 13 9 10 13 13 13 18 15 12 16 9 18 21 28 3 -3 23 32 17 2 6 2
11 9 4 5 9 11 8 8 13 9 11 14 3 11 19 15 29 32 30 20 16 5 1 7 -1 3 5
11 14 15 10 10 0 8 14 12 14 7 22 12 40 28 9 0 3 3 3 2 4 4 5 6 6 5
13 11 8 23 12 -19 39 18 12 2 23 32 10 2 -0 3 2 5 4 5 5 5 5 4 4 4 3
12 14 3 3 19 9 13 5 25 14 4 5 5 5 5 5 1 2 6 6 5 5 6 5 4 4 5
13 5 12 15 16 5 8 6 4 3 3 5 4 5 5 6 8 6 6 5 8 7 7 6 4 4 4
6 6 6 4 4 3 2 3 5 5 5 6 7 6 6 6 6 6 7 8 7 7 7 7 4 4 6
5 5 5 5 5 6 7 7 8 10 10 8 5 3 3 5 7 11 10 10 9 8 8 8 8 8 6
6 6 6 7 7 8 7 6 6 6 6 6 6 6 8 9 10 12 11 10 8 8 7 7 8 9 11
4 5 5 4 5 8 9 7 6 4 4 6 7 7 10 10 13 11 12 7 7 8 7 10 14 44 52
Height
5653 5661 5669 5675 5678 5682 5688 5693 5697 5700 5702 5703 5704 5705 5706 5706 5706 5707 5706 5706 5706 5706 5706 5705 5704 5703 5702
5634 5645 5653 5659 5665 5668 5675 5680 5683 5685 5686 5689 5691 5692 5693 5693 5694 5694 5693 5693 5693 5693 5692 5691 5690 5689 5688
5619 5627 5637 5643 5650 5655 5661 5665 5669 5670 5673 5673 5675 5677 5679 5680 5680 5679 5680 5680 5680 5680 5678 5677 5676 5676 5674
5602 5611 5620 5628 5634 5642 5647 5649 5654 5656 5660 5661 5662 5664 5664 5665 5666 5665 5665 5664 5666 5666 5664 5663 5662 5661 5660
5590 5597 5607 5615 5622 5626 5632 5635 5639 5643 5646 5647 5647 5648 5650 5650 5652 5649 5649 5650 5649 5649 5648 5648 5647 5645 5645
5577 5586 5593 5600 5607 5612 5617 5621 5627 5627 5628 5634 5634 5637 5637 5638 5637 5637 5637 5636 5635 5632 5631 5632 5633 5631 5632
5566 5575 5582 5590 5596 5601 5605 5609 5612 5613 5615 5622 5619 5624 5619 5620 5619 5620 5621 5620 5618 5618 5618 5618 5619 5618 5621
5559 5566 5573 5579 5583 5588 5591 5595 5598 5599 5601 5608 5604 5608 5604 5605 5605 5604 5605 5606 5606 5606 5604 5604 5606 5608 5610
5551 5557 5563 5567 5571 5574 5578 5581 5584 5586 5588 5590 5591 5591 5591 5592 5594 5593 5592 5593 5594 5594 5595 5595 5595 5595 5595
5545 5549 5554 5558 5562 5564 5567 5569 5572 5573 5575 5578 5578 5580 5583 5583 5584 5584 5584 5584 5583 5583 5582 5580 5579 5579 5579
5538 5541 5545 5548 5551 5554 5556 5558 5560 5562 5565 5567 5569 5571 5573 5574 5575 5573 5573 5571 5570 5568 5566 5565 5563 5561 5561
5532 5535 5537 5541 5543 5546 5548 5551 5553 5555 5557 5559 5560 5561 5562 5563 5562 5561 5557 5555 5553 5551 5548 5546 5543 5540 5536
5528 5530 5533 5536 5538 5540 5542 5544 5546 5548 5549 5549 5549 5549 5549 5549 5548 5545 5542 5540 5534 5531 5528 5525 5521 5514 5509
5526 5527 5529 5531 5533 5535 5536 5537 5538 5538 5538 5538 5538 5538 5537 5535 5533 5530 5526 5523 5517 5511 5507 5503 5496 5485 5476
5521 5522 5524 5525 5526 5526 5526 5527 5526 5526 5526 5526 5525 5524 5522 5519 5515 5511 5507 5502 5495 5488 5483 5479 5472 5455 5441
5514 5515 5515 5515 5516 5516 5515 5515 5514 5513 5513 5512 5511 5508 5505 5501 5497 5492 5487 5482 5476 5467 5454 5446 5442 5418 5395
5506 5505 5505 5505 5505 5504 5503 5502 5501 5500 5499 5497 5495 5493 5490 5485 5479 5470 5469 5463 5455 5444 5428 5409 5395 5380 5354